Weather History for KPVD - February, 2014

Change the Weather History Date:

Sunday, February 9, 2014

  Actual Average Record
Temperature  
Mean Temperature 28 °F 31 °F  
Max Temperature 33 °F 39 °F 60 °F (1937)
Min Temperature 22 °F 23 °F -17 °F (1934)
Degree Days  
Heating Degree Days 37 34  
Month to date heating degree days 318 311  
Since 1 July heating degree days 3574 3448  
Cooling Degree Days 0 0  
Month to date cooling degree days 0 0  
Year to date cooling degree days 0 0  
Moisture  
Dew Point 14 °F    
Average Humidity 64    
Maximum Humidity 88    
Minimum Humidity 40    
Precipitation  
Precipitation 0.03 in 0.11 in 1.50 in (1969)
Month to date precipitation 1.51 1.02  
Year to date precipitation 5.20 4.88  
Snow  
Snow 0.70 in 0.30 in 9.90 in (1969)
Month to date snowfall 8.8 2.8  
Since 1 July snowfall 30.9 22.0  
Snow Depth 4.00 in    
Sea Level Pressure  
Sea Level Pressure 30.07 in    
Wind  
Wind Speed 6 mph (West)    
Max Wind Speed 13 mph    
Max Gust Speed 15 mph    
Visibility 8 miles    
Events Snow    
T = Trace of Precipitation, MM = Missing Value Source: NWS Daily Summary

Daily Weather History Graph

Daily Weather History Graph

Search for Another Location

Airport or City:

Trip Planner

Search our weather history database for the weather conditions in past years. The results will help you decide how hot, cold, wet, or windy it might be!

Date:

Astronomy

Feb. 09, 2014 Rise Set
Actual Time 6:48 AM EST 5:11 PM EST
Civil Twilight 6:20 AM EST 5:40 PM EST
Nautical Twilight 5:47 AM EST 6:13 PM EST
Astronomical Twilight 5:14 AM EST 6:45 PM EST
Moon 12:47 PM EST (2/9) 2:52 AM EST (2/9)
Length of Visible Light 11h 20m
Length of Day
10h 22m
Waxing Gibbous, 77% of the Moon is Illuminated
Feb 9
Waxing Gibbous
Feb 14
Full
Feb 22
Last Quarter
Mar 1
New
Mar 8
First Quarter

Hourly Weather History & Observations

Time (EST) Temp. Windchill Dew Point Humidity Pressure Visibility Wind Dir Wind Speed Gust Speed Precip Events Conditions
12:51 AM 24.1 °F 19.7 °F 3.9 °F 42% 30.13 in 10.0 mi WNW 3.5 mph - N/A   Overcast
1:51 AM 25.0 °F 20.7 °F 3.0 °F 39% 30.13 in 10.0 mi NNW 3.5 mph - N/A   Overcast
2:51 AM 24.1 °F 17.0 °F 3.9 °F 42% 30.13 in 10.0 mi NNW 5.8 mph - N/A   Overcast
3:51 AM 24.1 °F 14.4 °F 5.0 °F 44% 30.13 in 10.0 mi NNW 9.2 mph - N/A   Overcast
4:51 AM 23.0 °F 13.9 °F 7.0 °F 50% 30.12 in 10.0 mi North 8.1 mph - N/A   Overcast
5:51 AM 23.0 °F 15.8 °F 6.1 °F 48% 30.13 in 10.0 mi NNW 5.8 mph - N/A   Mostly Cloudy
6:51 AM 21.9 °F 14.5 °F 6.1 °F 51% 30.14 in 10.0 mi NW 5.8 mph - N/A   Scattered Clouds
7:51 AM 21.9 °F 11.7 °F 8.1 °F 55% 30.15 in 10.0 mi NNW 9.2 mph - N/A   Mostly Cloudy
8:38 AM 21.2 °F 9.5 °F 8.6 °F 58% 30.15 in 10.0 mi North 11.5 mph - N/A   Mostly Cloudy
8:51 AM 23.0 °F 13.1 °F 10.0 °F 58% 30.16 in 10.0 mi North 9.2 mph - N/A   Mostly Cloudy
9:51 AM 25.0 °F 17.1 °F 12.9 °F 60% 30.15 in 10.0 mi North 6.9 mph - N/A   Mostly Cloudy
10:51 AM 27.0 °F 19.5 °F 16.0 °F 63% 30.13 in 10.0 mi NNE 6.9 mph - N/A   Mostly Cloudy
11:19 AM 28.4 °F 20.4 °F 17.6 °F 64% 30.12 in 10.0 mi North 8.1 mph - N/A   Mostly Cloudy
11:51 AM 28.9 °F 21.1 °F 17.1 °F 61% 30.11 in 10.0 mi NE 8.1 mph - N/A   Mostly Cloudy
12:51 PM 30.9 °F - 17.1 °F 57% 30.08 in 10.0 mi Calm Calm - N/A   Scattered Clouds
1:51 PM 32.0 °F - 17.1 °F 54% 30.06 in 10.0 mi Calm Calm - N/A   Mostly Cloudy
2:51 PM 30.9 °F 26.2 °F 19.0 °F 61% 30.04 in 10.0 mi SSE 4.6 mph - N/A   Overcast
3:06 PM 30.2 °F 24.3 °F 17.6 °F 60% 30.04 in 10.0 mi SSE 5.8 mph - N/A   Overcast
3:51 PM 30.0 °F 24.1 °F 19.0 °F 64% 30.03 in 10.0 mi SSE 5.8 mph - N/A   Overcast
4:51 PM 30.0 °F 22.4 °F 19.9 °F 66% 30.02 in 10.0 mi South 8.1 mph - N/A   Overcast
5:51 PM 28.9 °F 21.1 °F 19.0 °F 67% 30.05 in 10.0 mi SSW 8.1 mph - N/A   Overcast
6:51 PM 28.0 °F 24.2 °F 19.0 °F 69% 30.02 in 10.0 mi South 3.5 mph - 0.00 in   Overcast
7:51 PM 28.0 °F 21.7 °F 18.0 °F 66% 30.01 in 10.0 mi SW 5.8 mph - N/A   Overcast
8:17 PM 28.4 °F 19.1 °F 17.6 °F 64% 30.00 in 5.0 mi SW 10.4 mph - 0.00 in Snow Light Snow
8:51 PM 27.0 °F 19.5 °F 19.0 °F 72% 30.00 in 9.0 mi SW 6.9 mph - 0.00 in Snow Light Snow
9:35 PM 24.8 °F 16.9 °F 19.4 °F 80% 30.00 in 2.5 mi WSW 6.9 mph - 0.00 in Snow Light Snow
9:51 PM 25.0 °F 18.1 °F 21.0 °F 85% 29.99 in 2.0 mi SW 5.8 mph - 0.00 in Snow Light Snow
10:20 PM 24.8 °F 17.9 °F 21.2 °F 86% 29.99 in 1.5 mi SW 5.8 mph - 0.01 in Snow Light Snow
10:51 PM 25.0 °F 20.7 °F 21.9 °F 88% 29.98 in 1.5 mi SSW 3.5 mph - 0.02 in Snow Light Snow
11:51 PM 25.0 °F 16.3 °F 21.0 °F 85% 29.97 in 2.0 mi WSW 8.1 mph - 0.01 in Snow Light Snow
11:57 PM 24.8 °F 17.9 °F 21.2 °F 86% 29.96 in 3.0 mi WSW 5.8 mph - 0.00 in Snow Light Snow